Time,TemperatureF,DewpointF,PressureIn,WindDirection,WindDirectionDegrees,WindSpeedMPH,WindSpeedGustMPH,Humidity,HourlyPrecipIn,Conditions,Clouds,dailyrainin,SoftwareType,DateUTC
2013-05-13 00:01:00,56.0,56.0,-100.00,NNW,345,0.0,6.0,100,-99.99,,,-99.99,,2013-05-13 07:01:00,
2013-05-13 00:10:00,56.0,56.0,-100.00,NNW,335,0.0,3.0,100,-99.99,,,-99.99,,2013-05-13 07:10:00,
2013-05-13 01:02:00,56.0,56.0,-100.00,NNW,335,0.0,3.0,100,-99.99,,,-99.99,,2013-05-13 08:02:00,
2013-05-13 01:10:00,55.0,55.0,-100.00,NNW,330,1.0,9.0,100,-99.99,,,-99.99,,2013-05-13 08:10:00,
2013-05-13 02:01:00,55.0,55.0,-100.00,NNW,330,1.0,9.0,100,-99.99,,,-99.99,,2013-05-13 09:01:00,
2013-05-13 02:10:00,55.0,55.0,-100.00,NW,305,1.0,3.0,100,-99.99,,,-99.99,,2013-05-13 09:10:00,
2013-05-13 03:02:00,55.0,55.0,-100.00,NW,305,1.0,3.0,100,-99.99,,,-99.99,,2013-05-13 10:02:00,
2013-05-13 03:10:00,55.0,55.0,-100.00,NW,305,1.0,3.0,100,-99.99,,,-99.99,,2013-05-13 10:10:00,
2013-05-13 04:02:00,55.0,55.0,-100.00,NW,305,1.0,3.0,100,-99.99,,,-99.99,,2013-05-13 11:02:00,
2013-05-13 04:10:00,55.0,55.0,-100.00,ESE,115,3.0,6.0,100,-99.99,,,-99.99,,2013-05-13 11:10:00,
2013-05-13 05:01:00,55.0,55.0,-100.00,ESE,115,3.0,6.0,100,-99.99,,,-99.99,,2013-05-13 12:01:00,
2013-05-13 05:10:00,55.0,55.0,-100.00,NNE,20,0.0,2.0,100,-99.99,,,-99.99,,2013-05-13 12:10:00,
2013-05-13 06:01:00,55.0,55.0,-100.00,NNE,20,0.0,2.0,100,-99.99,,,-99.99,,2013-05-13 13:01:00,
2013-05-13 06:10:00,55.0,55.0,-100.00,WNW,295,0.0,3.0,100,-99.99,,,-99.99,,2013-05-13 13:10:00,
2013-05-13 07:02:00,55.0,55.0,-100.00,WNW,295,0.0,3.0,100,-99.99,,,-99.99,,2013-05-13 14:02:00,
2013-05-13 07:10:00,55.0,55.0,-100.00,WNW,285,0.0,2.0,100,-99.99,,,-99.99,,2013-05-13 14:10:00,
2013-05-13 08:01:00,55.0,55.0,-100.00,WNW,285,0.0,2.0,100,-99.99,,,-99.99,,2013-05-13 15:01:00,
2013-05-13 08:10:00,56.0,56.0,-100.00,SE,135,2.0,3.0,100,-99.99,,,-99.99,,2013-05-13 15:10:00,
2013-05-13 09:03:00,56.0,56.0,-100.00,SE,135,2.0,3.0,100,-99.99,,,-99.99,,2013-05-13 16:03:00,
2013-05-13 09:10:00,58.0,56.0,-100.00,NNE,15,0.0,3.0,93,-99.99,,,-99.99,,2013-05-13 16:10:00,
2013-05-13 10:02:00,58.0,56.0,-100.00,NNE,15,0.0,3.0,93,-99.99,,,-99.99,,2013-05-13 17:02:00,
2013-05-13 10:10:00,59.0,58.0,-100.00,NW,310,1.0,5.0,96,-99.99,,,-99.99,,2013-05-13 17:10:00,
2013-05-13 11:03:00,59.0,58.0,-100.00,NW,310,1.0,5.0,96,-99.99,,,-99.99,,2013-05-13 18:03:00,
2013-05-13 11:10:00,61.0,58.0,-100.00,WNW,295,3.0,10.0,89,-99.99,,,-99.99,,2013-05-13 18:10:00,
2013-05-13 12:01:00,61.0,58.0,-100.00,WNW,295,3.0,10.0,89,-99.99,,,-99.99,,2013-05-13 19:01:00,
2013-05-13 12:10:00,64.0,59.0,-100.00,WNW,295,2.0,5.0,83,-99.99,,,-99.99,,2013-05-13 19:10:00,
2013-05-13 13:01:00,64.0,59.0,-100.00,WNW,295,2.0,5.0,83,-99.99,,,-99.99,,2013-05-13 20:01:00,
2013-05-13 13:10:00,63.0,54.0,-100.00,NE,55,2.0,8.0,72,-99.99,,,-99.99,,2013-05-13 20:10:00,
2013-05-13 14:02:00,63.0,54.0,-100.00,NE,55,2.0,8.0,72,-99.99,,,-99.99,,2013-05-13 21:02:00,
2013-05-13 14:10:00,54.0,53.0,-100.00,West,265,6.0,30.0,96,-99.99,,,-99.99,,2013-05-13 21:10:00,
2013-05-13 15:02:00,54.0,53.0,-100.00,West,265,6.0,30.0,96,-99.99,,,-99.99,,2013-05-13 22:02:00,
2013-05-13 15:10:00,54.0,53.0,-100.00,NNW,335,3.0,17.0,96,-99.99,,,-99.99,,2013-05-13 22:10:00,
2013-05-13 16:01:00,54.0,53.0,-100.00,NNW,335,3.0,17.0,96,-99.99,,,-99.99,,2013-05-13 23:01:00,
2013-05-13 16:10:00,53.0,52.0,-100.00,North,10,6.0,25.0,96,-99.99,,,-99.99,,2013-05-13 23:10:00,
2013-05-13 17:02:00,53.0,52.0,-100.00,North,10,6.0,25.0,96,-99.99,,,-99.99,,2013-05-14 00:02:00,
2013-05-13 17:10:00,49.0,49.0,-100.00,NW,305,8.0,18.0,100,-99.99,,,-99.99,,2013-05-14 00:10:00,
2013-05-13 18:01:00,49.0,49.0,-100.00,NW,305,8.0,18.0,100,-99.99,,,-99.99,,2013-05-14 01:01:00,
2013-05-13 18:10:00,49.0,48.0,-100.00,NNW,330,7.0,21.0,96,-99.99,,,-99.99,,2013-05-14 01:10:00,
2013-05-13 19:02:00,49.0,48.0,-100.00,NNW,330,7.0,21.0,96,-99.99,,,-99.99,,2013-05-14 02:02:00,
2013-05-13 19:10:00,50.0,46.0,-100.00,North,360,3.0,18.0,86,-99.99,,,-99.99,,2013-05-14 02:10:00,
2013-05-13 20:01:00,50.0,46.0,-100.00,North,360,3.0,18.0,86,-99.99,,,-99.99,,2013-05-14 03:01:00,
2013-05-13 20:10:00,49.0,46.0,-100.00,NW,315,2.0,16.0,89,-99.99,,,-99.99,,2013-05-14 03:10:00,
2013-05-13 21:02:00,49.0,46.0,-100.00,NW,315,2.0,16.0,89,-99.99,,,-99.99,,2013-05-14 04:02:00,
2013-05-13 21:10:00,48.0,44.0,-100.00,NNW,330,1.0,8.0,85,-99.99,,,-99.99,,2013-05-14 04:10:00,
2013-05-13 22:01:00,48.0,44.0,-100.00,NNW,330,1.0,8.0,85,-99.99,,,-99.99,,2013-05-14 05:01:00,
2013-05-13 22:10:00,49.0,45.0,-100.00,NNE,20,1.0,13.0,86,-99.99,,,-99.99,,2013-05-14 05:10:00,
2013-05-13 23:01:00,49.0,45.0,-100.00,NNE,20,1.0,13.0,86,-99.99,,,-99.99,,2013-05-14 06:01:00,
2013-05-13 23:10:00,47.0,43.0,-100.00,West,270,1.0,3.0,85,-99.99,,,-99.99,,2013-05-14 06:10:00,